Simultaneous Nadir Overpasses (SNOs) Predictions

Prediction of SNOs between FY3D and METOP-C Satellite Orbit:

Table of predicted SNOs for the next 14.0 days since TLE Epoch: 6/20/2022
Index Date (FY3D) Time (FY3D) Lat,Lon (FY3D) SZA (FY3D ) Date (METOP-C) Time (METOP-C) Lat,Lon (METOP-C) SZA (METOP-C ) Distance(km) Time Diff (sec)
1 07/01/2022 01:04:20 74.79, 156.85 51.76 07/01/2022 01:05:25 74.75, 160.24 51.60 99.35 65
2 07/01/2022 01:55:03 -74.71, -35.63 128.33 07/01/2022 01:56:09 -74.71, -32.57 128.44 89.72 66
3 07/01/2022 02:45:44 74.43, 132.43 51.37 07/01/2022 02:46:54 74.39, 133.95 51.27 45.40 70
4 07/01/2022 03:36:27 -74.36, -60.05 128.71 07/01/2022 03:37:39 -74.30, -58.98 128.82 32.85 72
5 07/01/2022 04:27:09 74.13, 107.86 51.04 07/01/2022 04:28:21 74.13, 107.93 51.03 2.27 72
6 07/01/2022 05:17:53 -74.10, -84.76 128.99 07/01/2022 05:19:04 -74.13, -84.74 128.97 3.43 71
7 07/01/2022 06:08:40 74.11, 82.52 51.03 07/01/2022 06:09:43 74.11, 82.54 51.02 0.67 63
8 07/01/2022 06:59:24 -74.08,-110.10 129.00 07/01/2022 07:00:26 -74.11,-110.13 128.98 3.14 62
9 07/01/2022 07:50:11 74.09, 57.18 51.02 07/01/2022 07:51:05 74.09, 57.15 51.00 1.18 54
10 07/01/2022 08:40:56 -74.11,-135.56 128.96 07/01/2022 08:41:48 -74.09,-135.53 129.00 3.09 52
11 07/01/2022 09:31:42 74.08, 31.84 51.00 07/01/2022 09:32:27 74.07, 31.76 50.99 2.82 45
12 07/01/2022 10:22:27 -74.10,-160.90 128.97 07/01/2022 10:23:10 -74.07,-160.92 129.01 3.36 43
13 07/01/2022 11:13:14 74.11, 6.38 51.04 07/01/2022 11:13:48 74.09, 6.49 51.02 3.57 34
14 07/01/2022 12:03:58 -74.08, 173.76 128.99 07/01/2022 12:04:31 -74.10, 173.82 128.98 2.35 33
15 07/01/2022 12:54:45 74.09, -18.96 51.03 07/01/2022 12:55:10 74.07, -18.90 51.01 2.50 25
16 07/01/2022 13:45:29 -74.06, 148.43 129.00 07/01/2022 13:45:53 -74.08, 148.43 128.99 1.30 24
17 07/01/2022 14:36:16 74.07, -44.29 51.02 07/01/2022 14:36:32 74.05, -44.29 50.99 2.31 16
18 07/01/2022 15:27:00 -74.05, 123.09 129.01 07/01/2022 15:27:15 -74.06, 123.03 129.01 1.83 15
19 07/01/2022 16:17:47 74.06, -69.63 51.00 07/01/2022 16:17:54 74.03, -69.68 50.98 3.16 7
20 07/01/2022 17:08:31 -74.03, 97.75 129.03 07/01/2022 17:08:37 -74.04, 97.64 129.02 3.23 6
21 07/01/2022 17:59:18 74.04, -94.97 50.99 07/01/2022 17:59:15 74.06, -94.95 51.01 2.38 3
22 07/01/2022 18:50:03 -74.06, 72.29 128.99 07/01/2022 18:49:58 -74.06, 72.38 128.99 2.65 5
23 07/01/2022 19:40:48 74.02,-120.31 50.98 07/01/2022 19:40:36 74.04,-120.34 51.00 2.19 12
24 07/01/2022 20:31:33 -74.05, 46.95 129.00 07/01/2022 20:31:19 -74.04, 46.98 129.00 1.11 14
25 07/01/2022 21:22:19 74.01,-145.64 50.96 07/01/2022 21:21:58 74.02,-145.73 50.98 3.07 21
26 07/01/2022 22:13:04 -74.03, 21.61 129.01 07/01/2022 22:12:41 -74.02, 21.59 129.02 0.97 23
27 07/01/2022 23:03:51 74.04,-171.11 51.01 07/01/2022 23:03:19 74.05,-171.00 51.02 3.34 32
28 07/01/2022 23:54:35 -74.01, -3.73 129.02 07/01/2022 23:54:03 -74.00, -3.80 129.03 2.47 32
29 07/02/2022 00:45:22 74.02, 163.56 50.99 07/02/2022 00:44:41 74.03, 163.61 51.00 1.68 41
30 07/02/2022 01:36:06 -74.00, -29.06 129.04 07/02/2022 01:35:24 -74.03, -29.07 129.00 3.80 42
31 07/02/2022 02:26:53 74.01, 138.22 50.98 07/02/2022 02:26:03 74.01, 138.22 50.99 0.22 50
32 07/02/2022 03:17:38 -74.03, -54.52 129.00 07/02/2022 03:16:46 -74.01, -54.46 129.01 2.96 52
33 07/02/2022 04:08:24 73.99, 112.88 50.97 07/02/2022 04:07:25 73.99, 112.83 50.97 1.66 59
34 07/02/2022 04:59:09 -74.01, -79.86 129.01 07/02/2022 04:58:08 -73.99, -79.85 129.02 2.55 61
35 07/02/2022 05:49:55 73.97, 87.54 50.95 07/02/2022 05:48:47 73.97, 87.44 50.96 3.31 68
36 07/02/2022 06:40:40 -74.00,-105.20 129.02 07/02/2022 06:39:30 -73.97,-105.24 129.04 3.12 70
37 07/02/2022 07:31:24 73.86, 62.45 50.84 07/02/2022 07:30:11 73.85, 61.81 50.86 19.78 73
38 07/02/2022 08:22:08 -73.83,-130.18 129.19 07/02/2022 08:20:55 -73.80,-130.98 129.19 25.15 73
39 07/02/2022 09:12:48 73.49, 37.93 50.45 07/02/2022 09:11:40 73.48, 35.61 50.53 73.53 68
40 07/02/2022 10:03:31 -73.42,-154.58 129.63 07/02/2022 10:02:24 -73.43,-157.17 129.51 82.21 67



Historial Predications of SNOs between FY3D and METOP-C
